Regional Weather Roundup
Issued by NWS Boston, MA

Current Version | Previous Version | Text Only | Print | Product List | Glossary Off
Versions: 1 2 3 4 5 6 7 8 9 10 11 12 13 14 15 16 17 18 19 20 21 22 23 24 25 26 27 28 29 30 31 32 33 34 35 36 37 38 39 40 41 42 43 44 45 46 47 48 49 50
507 ASUS41 KBOX 201810 RWRBOX REGIONAL WEATHER ROUNDUP NATIONAL WEATHER SERVICE TAUNTON MA 100 PM EST TUE FEB 20 2018 NOTE: "FAIR" INDICATES FEW OR NO CLOUDS BELOW 12,000 FEET WITH NO SIGNIFICANT WEATHER AND/OR OBSTRUCTIONS TO VISIBILITY. MAZALL-201900- EASTERN MASSACHUSETTS CITY SKY/WX TMP DP RH WIND PRES REMARKS BOSTON FAIR 65 53 65 SW13G24 30.20F 6HR MIN TEMP: 51; 6HR MAX TEMP: 65; BEVERLY FAIR 66 53 63 SW9 30.19F LAWRENCE FAIR 67 52 58 SW6 30.21F BEDFORD FAIR 67 51 56 SW13 30.20F BLUE HILL N/A 65 53 65 SW15G22 30.21F NORWOOD FAIR 67 53 61 SW10 30.21F MARSHFIELD FAIR 64 54 68 SW12G21 30.22S PLYMOUTH FAIR 62 52 69 SW14 30.25S TAUNTON FAIR 60 52 74 SW10G17 30.25F NEW BEDFORD CLOUDY 54 52 93 SW9 30.26F $$ MAZALL-201900- CAPE COD AND THE ISLANDS CITY SKY/WX TMP DP RH WIND PRES REMARKS FALMOUTH N/A 50 50 100 SW15G22 30.29 FOG HYANNIS CLOUDY 54 54 100 SW17G29 30.26S FOG CHATHAM FOG 46 46 100 SW10G22 30.28F VSB 1 PROVINCETOWN CLOUDY 48 46 93 SW21 30.24F FOG NANTUCKET FOG 46 46 100 SW20 30.31F VSB 1/4 MARTHAS VNYRD CLOUDY 50 49 96 SW10G20 30.30F FOG $$ MAZALL-201900- CENTRAL AND WESTERN MASSACHUSETTS CITY SKY/WX TMP DP RH WIND PRES REMARKS WORCESTER FAIR 62 51 67 W17 30.23F 6HR MIN TEMP: 47; 6HR MAX TEMP: 62; FITCHBURG FAIR 68 54 60 W8 30.21F ORANGE CLOUDY 51 50 96 SE6 30.23F SPRINGFIELD PTSUNNY 60 49 68 S13 30.21F WESTFIELD FAIR 60 50 69 S8 30.21F NORTH ADAMS FAIR 59 49 69 E13 30.18F PITTSFIELD FAIR 58 48 69 E6 30.18F $$ RIZALL-201900- RHODE ISLAND CITY SKY/WX TMP DP RH WIND PRES REMARKS PROVIDENCE FAIR 63 54 72 W18 30.26F 6HR MIN TEMP: 52; 6HR MAX TEMP: 63; NEWPORT FOG 48 48 100 SW7 30.27F VSB 1/2 BLOCK ISLAND LGT RAIN 46 46 100 SW15 30.31F VSB 1/4 SMITHFIELD FAIR 63 52 67 W9 30.25F WESTERLY FOG 49 49 100 SW7 30.30F VSB 1/4 $$ CTZALL-201900- CONNECTICUT CITY SKY/WX TMP DP RH WIND PRES REMARKS BRADLEY INTL PTSUNNY 59 49 69 S13 30.24F 6HR MIN TEMP: 47; 6HR MAX TEMP: 59; HARTFORD PTSUNNY 59 52 77 S9 30.25F BRIDGEPORT FAIR 53 49 86 SW13 30.28F DANBURY FAIR N/A N/A N/A SW7 30.27F GROTON FOG 47 45 93 S6 30.29F VSB 1/4 NEW HAVEN PTSUNNY 53 49 86 SW10 30.28F FOG CHESTER CLOUDY 55 52 88 SW13 30.28F FOG MERIDEN FAIR 59 51 75 S8 30.26F WILLIMANTIC PTSUNNY 63 52 67 SW7 30.26F OXFORD FAIR 60 52 74 SW9 30.27F $$ MEZ002-015-021-024-NHZ003-005-008-011-012-014-VTZ005-008-201900- NORTHERN NEW ENGLAND CITY SKY/WX TMP DP RH WIND PRES REMARKS PORTLAND ME CLOUDY 43 43 100 E3 30.24R FOG 6HR MIN TEMP: 37; 6HR MAX TEMP: 44; 6HR PCP: TRACE; BANGOR ME LGT RAIN 39 39 100 CALM 30.25F CONCORD NH FAIR 59 51 75 CALM 30.19F MANCHESTER NH FAIR 65 51 60 S6 30.17F NASHUA NH FAIR 64 52 64 VRB6 30.19F PORTSMOUTH NH PTSUNNY 49 46 92 E5 30.20F JAFFREY NH CLOUDY 51 50 96 SW5 30.21F KEENE NH CLOUDY 53 49 86 S7 30.20F BURLINGTON VT CLOUDY 51 46 83 SW13G22 30.09F MT. WASHINGTON LGT RAIN 41 41 100 W52G59 N/A VSB 1/16WCI 27 $$ NYZ052-076-201900- EASTERN NEW YORK CITY SKY/WX TMP DP RH WIND PRES REMARKS ALBANY PTSUNNY 56 46 69 S13 30.19F 6HR MIN TEMP: 44; 6HR MAX TEMP: 57; NEW YORK CITY PTSUNNY 60 51 72 SW12 30.29F 6HR MIN TEMP: 51; 6HR MAX TEMP: 60; 6HR PCP: TRACE; $$ ANZALL-201900- MARINE OBSERVATIONS STATION/POSITION TIME TEMP WIND PRES VSBY WAVE AIR SEA DIR/SP/G HT/PER (UTC) (F) (DEG/KT/KT) (MB) (MI) (FT/S) BOSTON BUOY 1750 51 41 220/ 6/ 8 1022.1F 3/11 BUZZARDS BAY 1700 43 230/ 20/ 21 1026.0F NANTUCKET SOUND 1750 42 38 250/ 14/ 16 1025.8F 1/ 5 MASS BAY-STELLWA 1704 44 40 1022.2F 4/11 ISLE OF SHOALS 1800 41 30/ 10/ 11 1022.7F S OF BLOCK IS 1743 40 N/A 5/ 7 $$ ......................KEY......................... SKY/WX - SKY CONDITION/PRESENT WEATHER TMP - TEMPERATURE IN FAHRENHEIT DWPT - DEWPOINT IN FAHRENHEIT RH - RELATIVE HUMIDITY IN PERCENT WIND - DIRECTION AND SPEED IN MPH PRES - MEAN SEA LEVEL PRESSURE IN INCHES OF HG WCI - WIND CHILL INDEX VSB - VISIBILITY IN MILES HX - HEAT INDEX TC - TEMPERATURE IN CELSIUS VRB - VARIABLE WIND DIRECTION N/A - NOT AVAILABLE

USA.gov is the U.S. government's official web portal to all federal, state and local government web resources and services.